contact:dominique.lefevre@mio.osupytheas.fr, maurice.libes@osupytheas.fr, didier.mallarino@osupytheas.fr
Project:EMSO http://www.emso-fr.org/EMSO-France
Depth: 2436.0 m
Title:EMSO Ligure Ouest : Data MII capteur CSTAR
DateTime,Latitude,Longitude,Instrument_Serial,Reference_Counts,Signal_Counts,Corrected_Signal_raw_counts,Calculated_Beam_c_inverse_meters,Internal_thermistor_counts
DateTime,Latitude,Longitude,Instrument_Serial,Reference_Counts,Signal_Counts,Corrected_Signal_raw_counts,Calculated_Beam_c_inverse_meters,Internal_thermistor_counts
2022-02-28T00:01:29,42.805,6.029,CST-1368DR,4875,5946,13019,0.728,551
2022-02-28T00:04:31,42.805,6.029,CST-1368DR,4875,5947,13021,0.727,551
2022-02-28T00:07:33,42.805,6.029,CST-1368DR,4875,5945,13019,0.728,551
2022-02-28T00:10:34,42.805,6.029,CST-1368DR,4875,5947,13022,0.727,551
2022-02-28T00:13:36,42.805,6.029,CST-1368DR,4875,5945,13018,0.728,551
2022-02-28T00:16:37,42.805,6.029,CST-1368DR,4875,5945,13017,0.728,551
2022-02-28T00:19:39,42.805,6.029,CST-1368DR,4875,5947,13022,0.727,551
2022-02-28T00:22:41,42.805,6.029,CST-1368DR,4875,5946,13020,0.727,551
2022-02-28T00:25:42,42.805,6.029,CST-1368DR,4875,5946,13020,0.727,551
2022-02-28T00:28:44,42.805,6.029,CST-1368DR,4875,5946,13021,0.727,551
2022-02-28T00:31:45,42.805,6.029,CST-1368DR,4875,5948,13024,0.726,551
2022-02-28T00:34:47,42.805,6.029,CST-1368DR,4875,5947,13022,0.727,551
2022-02-28T00:37:48,42.805,6.029,CST-1368DR,4875,5942,13012,0.730,551
2022-02-28T00:40:50,42.805,6.029,CST-1368DR,4875,5947,13022,0.727,551
2022-02-28T00:43:52,42.805,6.029,CST-1368DR,4875,5946,13021,0.727,551
2022-02-28T00:46:53,42.805,6.029,CST-1368DR,4875,5946,13021,0.727,551
2022-02-28T00:49:55,42.805,6.029,CST-1368DR,4875,5947,13022,0.727,551
2022-02-28T00:52:56,42.805,6.029,CST-1368DR,4875,5946,13019,0.728,551
2022-02-28T00:55:58,42.805,6.029,CST-1368DR,4875,5945,13019,0.728,551
2022-02-28T00:58:59,42.805,6.029,CST-1368DR,4875,5946,13020,0.727,551
2022-02-28T01:02:01,42.805,6.029,CST-1368DR,4875,5946,13020,0.727,551
2022-02-28T01:05:03,42.805,6.029,CST-1368DR,4875,5945,13018,0.728,551
2022-02-28T01:08:04,42.805,6.029,CST-1368DR,4875,5945,13018,0.728,551
2022-02-28T01:11:06,42.805,6.029,CST-1368DR,4875,5946,13021,0.727,551
2022-02-28T01:14:07,42.805,6.029,CST-1368DR,4875,5944,13016,0.728,551
2022-02-28T01:17:09,42.805,6.029,CST-1368DR,4875,5945,13019,0.728,551
2022-02-28T01:20:11,42.805,6.029,CST-1368DR,4875,5945,13018,0.728,551
2022-02-28T01:23:12,42.805,6.029,CST-1368DR,4875,5945,13017,0.728,551
2022-02-28T01:26:14,42.805,6.029,CST-1368DR,4875,5942,13012,0.730,551
2022-02-28T01:29:15,42.805,6.029,CST-1368DR,4875,5944,13016,0.728,551
2022-02-28T01:32:17,42.805,6.029,CST-1368DR,4875,5943,13014,0.729,551
2022-02-28T01:35:18,42.805,6.029,CST-1368DR,4875,5945,13018,0.728,551
2022-02-28T01:38:20,42.805,6.029,CST-1368DR,4875,5945,13018,0.728,551
2022-02-28T01:41:22,42.805,6.029,CST-1368DR,4875,5946,13020,0.727,551
2022-02-28T01:44:23,42.805,6.029,CST-1368DR,4875,5944,13015,0.729,551
2022-02-28T01:47:25,42.805,6.029,CST-1368DR,4875,5945,13018,0.728,551
2022-02-28T01:50:26,42.805,6.029,CST-1368DR,4875,5948,13024,0.726,551
2022-02-28T01:53:28,42.805,6.029,CST-1368DR,4875,5944,13016,0.728,551
2022-02-28T01:56:30,42.805,6.029,CST-1368DR,4875,5946,13020,0.727,551
2022-02-28T01:59:31,42.805,6.029,CST-1368DR,4875,5945,13019,0.728,551
2022-02-28T02:02:33,42.805,6.029,CST-1368DR,4875,5945,13017,0.728,551
2022-02-28T02:05:34,42.805,6.029,CST-1368DR,4875,5948,13025,0.726,551
2022-02-28T02:08:36,42.805,6.029,CST-1368DR,4875,5944,13015,0.729,551
2022-02-28T02:11:37,42.805,6.029,CST-1368DR,4875,5947,13022,0.727,551
2022-02-28T02:14:39,42.805,6.029,CST-1368DR,4875,5946,13020,0.727,551
2022-02-28T02:17:41,42.805,6.029,CST-1368DR,4875,5947,13022,0.727,551
2022-02-28T02:20:42,42.805,6.029,CST-1368DR,4875,5947,13022,0.727,551
2022-02-28T02:23:44,42.805,6.029,CST-1368DR,4875,5948,13024,0.726,551
2022-02-28T02:26:45,42.805,6.029,CST-1368DR,4875,5945,13018,0.728,551
2022-02-28T02:29:47,42.805,6.029,CST-1368DR,4875,5945,13018,0.728,551
2022-02-28T02:32:48,42.805,6.029,CST-1368DR,4875,5945,13018,0.728,551
2022-02-28T02:35:50,42.805,6.029,CST-1368DR,4875,5944,13016,0.728,551
2022-02-28T02:38:52,42.805,6.029,CST-1368DR,4875,5945,13018,0.728,551
2022-02-28T02:41:53,42.805,6.029,CST-1368DR,4875,5944,13016,0.728,551
2022-02-28T02:44:55,42.805,6.029,CST-1368DR,4875,5943,13013,0.729,551
2022-02-28T02:47:56,42.805,6.029,CST-1368DR,4875,5945,13017,0.728,551
2022-02-28T02:50:58,42.805,6.029,CST-1368DR,4875,5944,13015,0.729,551
2022-02-28T02:54:00,42.805,6.029,CST-1368DR,4875,5945,13017,0.728,551
2022-02-28T02:57:01,42.805,6.029,CST-1368DR,4875,5945,13017,0.728,551
2022-02-28T03:00:03,42.805,6.029,CST-1368DR,4875,5945,13019,0.728,551
2022-02-28T03:03:04,42.805,6.029,CST-1368DR,4875,5946,13021,0.727,551
2022-02-28T03:06:06,42.805,6.029,CST-1368DR,4875,5945,13019,0.728,551
2022-02-28T03:09:07,42.805,6.029,CST-1368DR,4875,5945,13017,0.728,551
2022-02-28T03:12:09,42.805,6.029,CST-1368DR,4875,5945,13017,0.728,551
2022-02-28T03:15:11,42.805,6.029,CST-1368DR,4875,5944,13016,0.728,551
2022-02-28T03:18:12,42.805,6.029,CST-1368DR,4875,5945,13019,0.728,551
2022-02-28T03:21:14,42.805,6.029,CST-1368DR,4875,5945,13018,0.728,551
2022-02-28T03:24:15,42.805,6.029,CST-1368DR,4875,5947,13021,0.727,551
2022-02-28T03:27:17,42.805,6.029,CST-1368DR,4875,5946,13020,0.727,551
2022-02-28T03:30:18,42.805,6.029,CST-1368DR,4875,5947,13023,0.726,551
2022-02-28T03:33:20,42.805,6.029,CST-1368DR,4875,5947,13022,0.727,551
2022-02-28T03:36:22,42.805,6.029,CST-1368DR,4875,5945,13017,0.728,551
2022-02-28T03:39:23,42.805,6.029,CST-1368DR,4875,5943,13014,0.729,551
2022-02-28T03:42:25,42.805,6.029,CST-1368DR,4875,5943,13014,0.729,551
2022-02-28T03:45:26,42.805,6.029,CST-1368DR,4875,5944,13015,0.729,551
2022-02-28T03:48:28,42.805,6.029,CST-1368DR,4875,5944,13015,0.729,551
2022-02-28T03:51:30,42.805,6.029,CST-1368DR,4875,5955,13039,0.721,551
2022-02-28T03:54:31,42.805,6.029,CST-1368DR,4875,5945,13018,0.728,551
2022-02-28T03:57:33,42.805,6.029,CST-1368DR,4875,5947,13022,0.727,551
2022-02-28T04:00:34,42.805,6.029,CST-1368DR,4875,5946,13021,0.727,551
2022-02-28T04:03:36,42.805,6.029,CST-1368DR,4875,5945,13017,0.728,551
2022-02-28T04:06:37,42.805,6.029,CST-1368DR,4875,5947,13022,0.727,551
2022-02-28T04:09:39,42.805,6.029,CST-1368DR,4875,5948,13024,0.726,551
2022-02-28T04:12:41,42.805,6.029,CST-1368DR,4875,5946,13021,0.727,551
2022-02-28T04:15:42,42.805,6.029,CST-1368DR,4875,5944,13015,0.729,551
2022-02-28T04:18:44,42.805,6.029,CST-1368DR,4875,5944,13016,0.728,551
2022-02-28T04:21:45,42.805,6.029,CST-1368DR,4875,5947,13021,0.727,551
2022-02-28T04:24:47,42.805,6.029,CST-1368DR,4875,5945,13017,0.728,551
2022-02-28T04:27:49,42.805,6.029,CST-1368DR,4875,5944,13016,0.728,551
2022-02-28T04:30:50,42.805,6.029,CST-1368DR,4875,5944,13016,0.728,551
2022-02-28T04:33:52,42.805,6.029,CST-1368DR,4875,5943,13014,0.729,551
2022-02-28T04:36:53,42.805,6.029,CST-1368DR,4875,5944,13015,0.729,551
2022-02-28T04:39:55,42.805,6.029,CST-1368DR,4875,5944,13016,0.728,551
2022-02-28T04:42:56,42.805,6.029,CST-1368DR,4875,5944,13015,0.729,551
2022-02-28T04:45:58,42.805,6.029,CST-1368DR,4875,5944,13015,0.729,551
2022-02-28T04:49:00,42.805,6.029,CST-1368DR,4875,5944,13016,0.728,551
2022-02-28T04:52:01,42.805,6.029,CST-1368DR,4875,5944,13015,0.729,551
2022-02-28T04:55:03,42.805,6.029,CST-1368DR,4875,5944,13016,0.728,551
2022-02-28T04:58:04,42.805,6.029,CST-1368DR,4875,5953,13036,0.722,551
2022-02-28T05:01:06,42.805,6.029,CST-1368DR,4875,5945,13017,0.728,551
2022-02-28T05:04:07,42.805,6.029,CST-1368DR,4875,5944,13016,0.728,551
2022-02-28T05:07:09,42.805,6.029,CST-1368DR,4875,5944,13015,0.729,551
2022-02-28T05:10:11,42.805,6.029,CST-1368DR,4875,5944,13015,0.729,551
2022-02-28T05:13:12,42.805,6.029,CST-1368DR,4875,5945,13017,0.728,551
2022-02-28T05:16:14,42.805,6.029,CST-1368DR,4875,5943,13013,0.729,551
2022-02-28T05:19:15,42.805,6.029,CST-1368DR,4875,5942,13012,0.730,551
2022-02-28T05:22:17,42.805,6.029,CST-1368DR,4875,5944,13016,0.728,551
2022-02-28T05:25:19,42.805,6.029,CST-1368DR,4875,5944,13016,0.728,551
2022-02-28T05:28:20,42.805,6.029,CST-1368DR,4875,5944,13016,0.728,551
2022-02-28T05:31:22,42.805,6.029,CST-1368DR,4875,5944,13016,0.728,551
2022-02-28T05:34:23,42.805,6.029,CST-1368DR,4875,5943,13014,0.729,551
2022-02-28T05:37:25,42.805,6.029,CST-1368DR,4875,5943,13014,0.729,551
2022-02-28T05:40:26,42.805,6.029,CST-1368DR,4875,5944,13016,0.728,551
2022-02-28T05:43:28,42.805,6.029,CST-1368DR,4875,5944,13015,0.729,551
2022-02-28T05:46:30,42.805,6.029,CST-1368DR,4875,5944,13015,0.729,551
2022-02-28T05:49:31,42.805,6.029,CST-1368DR,4875,5943,13014,0.729,551
2022-02-28T05:52:33,42.805,6.029,CST-1368DR,4875,5944,13016,0.728,551
2022-02-28T05:55:34,42.805,6.029,CST-1368DR,4875,5942,13010,0.730,551
2022-02-28T05:58:36,42.805,6.029,CST-1368DR,4875,5942,13012,0.730,551
2022-02-28T06:01:38,42.805,6.029,CST-1368DR,4875,5942,13012,0.730,551
2022-02-28T06:04:39,42.805,6.029,CST-1368DR,4875,5943,13014,0.729,551
2022-02-28T06:07:41,42.805,6.029,CST-1368DR,4874,5947,13024,0.726,551
2022-02-28T06:10:42,42.805,6.029,CST-1368DR,4875,5943,13014,0.729,551
2022-02-28T06:13:44,42.805,6.029,CST-1368DR,4875,5944,13016,0.728,551
2022-02-28T06:16:45,42.805,6.029,CST-1368DR,4875,5944,13015,0.729,551
2022-02-28T06:19:47,42.805,6.029,CST-1368DR,4875,5943,13013,0.729,551
2022-02-28T06:22:49,42.805,6.029,CST-1368DR,4875,5944,13015,0.729,551
2022-02-28T06:25:50,42.805,6.029,CST-1368DR,4874,5943,13015,0.729,551
2022-02-28T06:28:52,42.805,6.029,CST-1368DR,4874,5943,13015,0.729,551
2022-02-28T06:31:53,42.805,6.029,CST-1368DR,4874,5943,13015,0.729,551
2022-02-28T06:34:55,42.805,6.029,CST-1368DR,4874,5942,13014,0.729,551
2022-02-28T06:37:56,42.805,6.029,CST-1368DR,4874,5932,12991,0.736,551
2022-02-28T06:40:58,42.805,6.029,CST-1368DR,4874,5934,12996,0.735,551
2022-02-28T06:44:00,42.805,6.029,CST-1368DR,4874,5942,13014,0.729,551
2022-02-28T06:47:01,42.805,6.029,CST-1368DR,4874,5943,13015,0.729,551
2022-02-28T06:50:03,42.805,6.029,CST-1368DR,4874,5943,13015,0.729,551
2022-02-28T06:53:04,42.805,6.029,CST-1368DR,4874,5944,13017,0.728,551
2022-02-28T06:56:06,42.805,6.029,CST-1368DR,4874,5942,13015,0.729,551
2022-02-28T06:59:08,42.805,6.029,CST-1368DR,4874,5942,13015,0.729,551
2022-02-28T07:02:09,42.805,6.029,CST-1368DR,4874,5943,13015,0.729,551
2022-02-28T07:05:11,42.805,6.029,CST-1368DR,4874,5942,13013,0.729,551
2022-02-28T07:08:12,42.805,6.029,CST-1368DR,4874,5943,13017,0.728,551
2022-02-28T07:11:14,42.805,6.029,CST-1368DR,4874,5938,13006,0.732,551
2022-02-28T07:14:15,42.805,6.029,CST-1368DR,4874,5940,13010,0.730,551
2022-02-28T07:17:17,42.805,6.029,CST-1368DR,4874,5937,13003,0.732,551
2022-02-28T07:20:19,42.805,6.029,CST-1368DR,4874,5938,13004,0.732,551
2022-02-28T07:23:20,42.805,6.029,CST-1368DR,4874,5940,13009,0.731,551
2022-02-28T07:26:22,42.805,6.029,CST-1368DR,4874,5941,13011,0.730,551
2022-02-28T07:29:23,42.805,6.029,CST-1368DR,4874,5937,13003,0.732,551
2022-02-28T07:32:25,42.805,6.029,CST-1368DR,4874,5942,13013,0.729,551
2022-02-28T07:35:27,42.805,6.029,CST-1368DR,4874,5940,13010,0.730,551
2022-02-28T07:38:28,42.805,6.029,CST-1368DR,4874,5939,13007,0.731,551
2022-02-28T07:41:30,42.805,6.029,CST-1368DR,4874,5940,13010,0.730,551
2022-02-28T07:44:31,42.805,6.029,CST-1368DR,4874,5942,13014,0.729,551
2022-02-28T07:47:33,42.805,6.029,CST-1368DR,4874,5940,13010,0.730,551
2022-02-28T07:50:34,42.805,6.029,CST-1368DR,4874,5940,13009,0.731,551
2022-02-28T07:53:36,42.805,6.029,CST-1368DR,4874,5939,13007,0.731,551
2022-02-28T07:56:38,42.805,6.029,CST-1368DR,4874,5940,13010,0.730,551
2022-02-28T07:59:39,42.805,6.029,CST-1368DR,4874,5939,13007,0.731,551
2022-02-28T08:02:41,42.805,6.029,CST-1368DR,4874,5940,13010,0.730,551
2022-02-28T08:05:42,42.805,6.029,CST-1368DR,4874,5938,13006,0.732,551
2022-02-28T08:08:44,42.805,6.029,CST-1368DR,4874,5938,13006,0.732,551
2022-02-28T08:11:45,42.805,6.029,CST-1368DR,4874,5936,13000,0.733,551
2022-02-28T08:14:47,42.805,6.029,CST-1368DR,4874,5937,13002,0.733,551
2022-02-28T08:17:49,42.805,6.029,CST-1368DR,4874,5938,13005,0.732,551
2022-02-28T08:20:50,42.805,6.029,CST-1368DR,4874,5938,13006,0.732,551
2022-02-28T08:23:52,42.805,6.029,CST-1368DR,4874,5937,13003,0.732,551
2022-02-28T08:26:53,42.805,6.029,CST-1368DR,4874,5937,13003,0.732,551
2022-02-28T08:29:55,42.805,6.029,CST-1368DR,4874,5938,13005,0.732,551
2022-02-28T08:32:57,42.805,6.029,CST-1368DR,4874,5938,13005,0.732,551
2022-02-28T08:35:58,42.805,6.029,CST-1368DR,4874,5937,13002,0.733,551
2022-02-28T08:39:00,42.805,6.029,CST-1368DR,4874,5939,13007,0.731,550
2022-02-28T08:42:01,42.805,6.029,CST-1368DR,4874,5938,13004,0.732,551
2022-02-28T08:45:03,42.805,6.029,CST-1368DR,4874,5940,13009,0.731,551
2022-02-28T08:48:04,42.805,6.029,CST-1368DR,4874,5942,13014,0.729,551
2022-02-28T08:51:06,42.805,6.029,CST-1368DR,4874,5940,13010,0.730,551
2022-02-28T08:54:08,42.805,6.029,CST-1368DR,4874,5940,13010,0.730,551
2022-02-28T08:57:09,42.805,6.029,CST-1368DR,4874,5940,13009,0.731,551
2022-02-28T09:00:11,42.805,6.029,CST-1368DR,4874,5939,13007,0.731,551
2022-02-28T09:03:12,42.805,6.029,CST-1368DR,4874,5939,13008,0.731,551
2022-02-28T09:06:14,42.805,6.029,CST-1368DR,4874,5937,13002,0.733,551
2022-02-28T09:09:15,42.805,6.029,CST-1368DR,4874,5939,13006,0.732,551
2022-02-28T09:12:17,42.805,6.029,CST-1368DR,4874,5939,13008,0.731,551
2022-02-28T09:15:19,42.805,6.029,CST-1368DR,4874,5938,13005,0.732,551
2022-02-28T09:18:20,42.805,6.029,CST-1368DR,4874,5938,13005,0.732,551
2022-02-28T09:21:22,42.805,6.029,CST-1368DR,4874,5922,12970,0.743,551
2022-02-28T09:24:23,42.805,6.029,CST-1368DR,4874,5936,13001,0.733,551
2022-02-28T09:27:25,42.805,6.029,CST-1368DR,4874,5939,13006,0.732,551
2022-02-28T09:30:27,42.805,6.029,CST-1368DR,4874,5939,13008,0.731,551
2022-02-28T09:33:28,42.805,6.029,CST-1368DR,4874,5937,13003,0.732,551
2022-02-28T09:36:30,42.805,6.029,CST-1368DR,4874,5938,13005,0.732,551
2022-02-28T09:39:31,42.805,6.029,CST-1368DR,4874,5936,13001,0.733,551
2022-02-28T09:42:33,42.805,6.029,CST-1368DR,4874,5939,13006,0.732,551
2022-02-28T09:45:34,42.805,6.029,CST-1368DR,4874,5938,13005,0.732,551
2022-02-28T09:48:36,42.805,6.029,CST-1368DR,4874,5938,13005,0.732,551
2022-02-28T09:51:38,42.805,6.029,CST-1368DR,4874,5938,13006,0.732,551
2022-02-28T09:54:39,42.805,6.029,CST-1368DR,4874,5936,13001,0.733,550
2022-02-28T09:57:41,42.805,6.029,CST-1368DR,4874,5936,13000,0.733,551
2022-02-28T10:00:42,42.805,6.029,CST-1368DR,4874,5938,13005,0.732,551
2022-02-28T10:03:44,42.805,6.029,CST-1368DR,4874,5932,12993,0.736,551
2022-02-28T10:06:46,42.805,6.029,CST-1368DR,4874,5936,13001,0.733,551
2022-02-28T10:09:47,42.805,6.029,CST-1368DR,4874,5938,13004,0.732,551
2022-02-28T10:12:49,42.805,6.029,CST-1368DR,4874,5932,12993,0.736,551
2022-02-28T10:15:50,42.805,6.029,CST-1368DR,4874,5937,13004,0.732,551
2022-02-28T10:18:52,42.805,6.029,CST-1368DR,4874,5941,13011,0.730,551
2022-02-28T10:21:53,42.805,6.029,CST-1368DR,4874,5932,12991,0.736,551
2022-02-28T10:24:55,42.805,6.029,CST-1368DR,4874,5940,13009,0.731,551
2022-02-28T10:27:57,42.805,6.029,CST-1368DR,4874,5931,12989,0.737,551
2022-02-28T10:30:58,42.805,6.029,CST-1368DR,4874,5939,13008,0.731,551
2022-02-28T10:34:00,42.805,6.029,CST-1368DR,4874,5938,13004,0.732,551
2022-02-28T10:37:01,42.805,6.029,CST-1368DR,4874,5937,13002,0.733,551
2022-02-28T10:40:03,42.805,6.029,CST-1368DR,4874,5937,13003,0.732,551
2022-02-28T10:43:04,42.805,6.029,CST-1368DR,4874,5936,13001,0.733,551
2022-02-28T10:46:06,42.805,6.029,CST-1368DR,4874,5930,12987,0.737,551
2022-02-28T10:49:08,42.805,6.029,CST-1368DR,4874,5936,13001,0.733,551
2022-02-28T10:52:09,42.805,6.029,CST-1368DR,4874,5935,12999,0.734,551
2022-02-28T10:55:11,42.805,6.029,CST-1368DR,4874,5937,13003,0.732,551
2022-02-28T10:58:12,42.805,6.029,CST-1368DR,4874,5932,12991,0.736,551
2022-02-28T11:01:14,42.805,6.029,CST-1368DR,4874,5934,12997,0.734,551
2022-02-28T11:04:16,42.805,6.029,CST-1368DR,4874,5938,13005,0.732,551
2022-02-28T11:07:17,42.805,6.029,CST-1368DR,4874,5938,13005,0.732,551
2022-02-28T11:10:19,42.805,6.029,CST-1368DR,4874,5934,12997,0.734,551
2022-02-28T11:13:20,42.805,6.029,CST-1368DR,4874,5937,13004,0.732,551
2022-02-28T11:16:22,42.805,6.029,CST-1368DR,4874,5935,12998,0.734,551
2022-02-28T11:19:23,42.805,6.029,CST-1368DR,4874,5934,12995,0.735,551
2022-02-28T11:22:25,42.805,6.029,CST-1368DR,4874,5931,12991,0.736,551
2022-02-28T11:25:27,42.805,6.029,CST-1368DR,4874,5932,12993,0.736,551
2022-02-28T11:28:28,42.805,6.029,CST-1368DR,4874,5933,12994,0.735,551
2022-02-28T11:31:30,42.805,6.029,CST-1368DR,4874,5931,12991,0.736,551
2022-02-28T11:34:31,42.805,6.029,CST-1368DR,4874,5927,12980,0.740,551
2022-02-28T11:37:33,42.805,6.029,CST-1368DR,4874,5930,12987,0.737,551
2022-02-28T11:40:34,42.805,6.029,CST-1368DR,4874,5930,12987,0.737,551
2022-02-28T11:43:36,42.805,6.029,CST-1368DR,4874,5931,12989,0.737,551
2022-02-28T11:46:38,42.805,6.029,CST-1368DR,4874,5933,12994,0.735,551
2022-02-28T11:49:39,42.805,6.029,CST-1368DR,4874,5931,12990,0.736,551
2022-02-28T11:52:41,42.805,6.029,CST-1368DR,4874,5928,12982,0.739,551
2022-02-28T11:55:42,42.805,6.029,CST-1368DR,4874,5929,12986,0.738,551
2022-02-28T11:58:44,42.805,6.029,CST-1368DR,4874,5933,12994,0.735,551
2022-02-28T12:01:46,42.805,6.029,CST-1368DR,4874,5924,12974,0.741,551
2022-02-28T12:04:47,42.805,6.029,CST-1368DR,4874,5928,12984,0.738,551
2022-02-28T12:07:49,42.805,6.029,CST-1368DR,4874,5931,12991,0.736,551
2022-02-28T12:10:50,42.805,6.029,CST-1368DR,4874,5931,12989,0.737,551
2022-02-28T12:13:52,42.805,6.029,CST-1368DR,4874,5931,12989,0.737,551
2022-02-28T12:16:53,42.805,6.029,CST-1368DR,4874,5925,12977,0.740,551
2022-02-28T12:19:55,42.805,6.029,CST-1368DR,4874,5921,12968,0.743,551
2022-02-28T12:22:57,42.805,6.029,CST-1368DR,4874,5931,12989,0.737,551
2022-02-28T12:25:58,42.805,6.029,CST-1368DR,4874,5931,12991,0.736,551
2022-02-28T12:29:00,42.805,6.029,CST-1368DR,4874,5930,12987,0.737,551
2022-02-28T12:32:01,42.805,6.029,CST-1368DR,4874,5931,12991,0.736,551
2022-02-28T12:35:03,42.805,6.029,CST-1368DR,4874,5930,12988,0.737,551
2022-02-28T12:38:04,42.805,6.029,CST-1368DR,4874,5930,12987,0.737,551
2022-02-28T12:41:06,42.805,6.029,CST-1368DR,4874,5933,12995,0.735,551
2022-02-28T12:44:08,42.805,6.029,CST-1368DR,4874,5932,12992,0.736,551
2022-02-28T12:47:09,42.805,6.029,CST-1368DR,4874,5937,13003,0.732,551
2022-02-28T12:50:11,42.805,6.029,CST-1368DR,4874,5933,12995,0.735,551
2022-02-28T12:53:12,42.805,6.029,CST-1368DR,4874,5931,12989,0.737,551
2022-02-28T12:56:14,42.805,6.029,CST-1368DR,4874,5932,12991,0.736,551
2022-02-28T12:59:16,42.805,6.029,CST-1368DR,4874,5930,12988,0.737,551
2022-02-28T13:02:17,42.805,6.029,CST-1368DR,4874,5926,12979,0.740,551
2022-02-28T13:05:19,42.805,6.029,CST-1368DR,4874,5934,12997,0.734,551
2022-02-28T13:08:20,42.805,6.029,CST-1368DR,4874,5925,12976,0.741,551
2022-02-28T13:11:22,42.805,6.029,CST-1368DR,4874,5928,12984,0.738,550
2022-02-28T13:14:23,42.805,6.029,CST-1368DR,4874,5936,13000,0.733,551
2022-02-28T13:17:25,42.805,6.029,CST-1368DR,4874,5925,12977,0.740,551
2022-02-28T13:20:27,42.805,6.029,CST-1368DR,4874,5927,12981,0.739,551
2022-02-28T13:23:28,42.805,6.029,CST-1368DR,4874,5927,12980,0.740,551
2022-02-28T13:26:30,42.805,6.029,CST-1368DR,4874,5939,13006,0.732,551
2022-02-28T13:29:31,42.805,6.029,CST-1368DR,4874,5928,12983,0.739,551
2022-02-28T13:32:33,42.805,6.029,CST-1368DR,4874,5927,12981,0.739,551
2022-02-28T13:35:34,42.805,6.029,CST-1368DR,4874,5927,12982,0.739,551
2022-02-28T13:38:36,42.805,6.029,CST-1368DR,4874,5930,12987,0.737,551
2022-02-28T13:41:38,42.805,6.029,CST-1368DR,4874,5927,12980,0.740,551
2022-02-28T13:44:39,42.805,6.029,CST-1368DR,4874,5929,12986,0.738,551
2022-02-28T13:47:41,42.805,6.029,CST-1368DR,4874,5931,12989,0.737,551
2022-02-28T13:50:42,42.805,6.029,CST-1368DR,4874,5927,12981,0.739,551
2022-02-28T13:53:44,42.805,6.029,CST-1368DR,4874,5928,12983,0.739,551
2022-02-28T13:56:46,42.805,6.029,CST-1368DR,4874,5928,12984,0.738,551
2022-02-28T13:59:47,42.805,6.029,CST-1368DR,4874,5926,12979,0.740,551
2022-02-28T14:02:49,42.805,6.029,CST-1368DR,4874,5929,12985,0.738,551
2022-02-28T14:05:50,42.805,6.029,CST-1368DR,4874,5924,12975,0.741,551
2022-02-28T14:08:52,42.805,6.029,CST-1368DR,4874,5925,12976,0.741,551
2022-02-28T14:11:53,42.805,6.029,CST-1368DR,4874,5927,12981,0.739,551
2022-02-28T14:14:55,42.805,6.029,CST-1368DR,4874,5926,12980,0.740,551
2022-02-28T14:17:57,42.805,6.029,CST-1368DR,4874,5925,12976,0.741,551
2022-02-28T14:20:58,42.805,6.029,CST-1368DR,4874,5924,12975,0.741,551
2022-02-28T14:24:00,42.805,6.029,CST-1368DR,4874,5928,12983,0.739,551
2022-02-28T14:27:01,42.805,6.029,CST-1368DR,4874,5926,12980,0.740,551
2022-02-28T14:30:03,42.805,6.029,CST-1368DR,4874,5924,12974,0.741,551
2022-02-28T14:33:05,42.805,6.029,CST-1368DR,4874,5928,12984,0.738,551
2022-02-28T14:36:06,42.805,6.029,CST-1368DR,4874,5924,12975,0.741,551
2022-02-28T14:39:08,42.805,6.029,CST-1368DR,4874,5928,12982,0.739,551
2022-02-28T14:42:09,42.805,6.029,CST-1368DR,4874,5930,12987,0.737,551
2022-02-28T14:45:11,42.805,6.029,CST-1368DR,4874,5930,12987,0.737,551
2022-02-28T14:48:12,42.805,6.029,CST-1368DR,4874,5925,12977,0.740,551
2022-02-28T14:51:14,42.805,6.029,CST-1368DR,4874,5927,12981,0.739,551
2022-02-28T14:54:16,42.805,6.029,CST-1368DR,4874,5927,12980,0.740,551
2022-02-28T14:57:17,42.805,6.029,CST-1368DR,4874,5932,12992,0.736,551
2022-02-28T15:00:19,42.805,6.029,CST-1368DR,4874,5931,12991,0.736,551
2022-02-28T15:03:20,42.805,6.029,CST-1368DR,4874,5927,12980,0.740,551
2022-02-28T15:06:22,42.805,6.029,CST-1368DR,4874,5930,12988,0.737,551
2022-02-28T15:09:23,42.805,6.029,CST-1368DR,4874,5930,12987,0.737,551
2022-02-28T15:12:25,42.805,6.029,CST-1368DR,4874,5929,12986,0.738,551
2022-02-28T15:15:27,42.805,6.029,CST-1368DR,4874,5928,12982,0.739,551
2022-02-28T15:18:28,42.805,6.029,CST-1368DR,4874,5929,12985,0.738,551
2022-02-28T15:21:30,42.805,6.029,CST-1368DR,4874,5930,12987,0.737,551
2022-02-28T15:24:31,42.805,6.029,CST-1368DR,4874,5924,12974,0.741,551
2022-02-28T15:27:33,42.805,6.029,CST-1368DR,4874,5927,12982,0.739,551
2022-02-28T15:30:35,42.805,6.029,CST-1368DR,4874,5928,12982,0.739,551
2022-02-28T15:33:36,42.805,6.029,CST-1368DR,4874,5931,12989,0.737,551
2022-02-28T15:36:38,42.805,6.029,CST-1368DR,4874,5930,12987,0.737,551
2022-02-28T15:39:39,42.805,6.029,CST-1368DR,4874,5926,12980,0.740,551
2022-02-28T15:42:41,42.805,6.029,CST-1368DR,4874,5930,12988,0.737,551
2022-02-28T15:45:42,42.805,6.029,CST-1368DR,4874,5931,12989,0.737,551
2022-02-28T15:48:44,42.805,6.029,CST-1368DR,4874,5938,13005,0.732,551
2022-02-28T15:51:46,42.805,6.029,CST-1368DR,4874,5931,12991,0.736,551
2022-02-28T15:54:47,42.805,6.029,CST-1368DR,4874,5929,12986,0.738,551
2022-02-28T15:57:49,42.805,6.029,CST-1368DR,4874,5925,12976,0.741,551
2022-02-28T16:00:50,42.805,6.029,CST-1368DR,4874,5925,12976,0.741,551
2022-02-28T16:03:52,42.805,6.029,CST-1368DR,4874,5924,12974,0.741,551
2022-02-28T16:06:53,42.805,6.029,CST-1368DR,4874,5931,12990,0.736,551
2022-02-28T16:09:55,42.805,6.029,CST-1368DR,4874,5927,12980,0.740,551
2022-02-28T16:12:57,42.805,6.029,CST-1368DR,4874,5931,12990,0.736,551
2022-02-28T16:15:58,42.805,6.029,CST-1368DR,4874,5928,12983,0.739,551
2022-02-28T16:19:00,42.805,6.029,CST-1368DR,4874,5930,12988,0.737,551
2022-02-28T16:22:01,42.805,6.029,CST-1368DR,4874,5928,12984,0.738,551
2022-02-28T16:25:03,42.805,6.029,CST-1368DR,4874,5929,12986,0.738,551
2022-02-28T16:28:05,42.805,6.029,CST-1368DR,4874,5926,12979,0.740,551
2022-02-28T16:31:06,42.805,6.029,CST-1368DR,4874,5926,12978,0.740,551
2022-02-28T16:34:08,42.805,6.029,CST-1368DR,4874,5929,12985,0.738,551
2022-02-28T16:37:09,42.805,6.029,CST-1368DR,4874,5932,12991,0.736,551
2022-02-28T16:40:11,42.805,6.029,CST-1368DR,4874,5932,12992,0.736,551
2022-02-28T16:43:12,42.805,6.029,CST-1368DR,4874,5932,12991,0.736,551
2022-02-28T16:46:14,42.805,6.029,CST-1368DR,4874,5930,12988,0.737,551
2022-02-28T16:49:16,42.805,6.029,CST-1368DR,4874,5930,12987,0.737,551
2022-02-28T16:52:17,42.805,6.029,CST-1368DR,4874,5933,12994,0.735,551